| time (UTC) | temp F | wind direction | speed knots | gust knots | rain 1hr in | rain 24hr in | rain mn in | humidity % | barometer mb |
| 20260507023331 | 47 | 0 | 0.0 | 1.7 | 0.00 | 0.00 | 0.00 | 43 | 960.4 |
| 20260507022608 | 47 | 0 | 0.0 | 0.9 | 0.00 | 0.00 | 0.00 | 40 | 960.4 |
| 20260507022107 | 48 | 0 | 0.0 | 0.9 | 0.00 | 0.00 | 0.00 | 39 | 960.5 |
| 20260507021830 | 48 | 0 | 0.0 | 1.7 | 0.00 | 0.00 | 0.00 | 38 | 960.5 |
| 20260507021105 | 49 | 0 | 0.0 | 1.7 | 0.00 | 0.00 | 0.00 | 37 | 960.5 |
| 20260507020602 | 49 | 0 | 0.0 | 0.9 | 0.00 | 0.00 | 0.00 | 37 | 960.5 |
| 20260507015824 | 50 | 137 | 0.0 | 0.9 | 0.00 | 0.00 | 0.00 | 35 | 960.5 |
| 20260507015102 | 51 | 0 | 0.0 | 1.7 | 0.00 | 0.00 | 0.00 | 35 | 960.4 |
| 20260507014602 | 51 | 0 | 0.0 | 1.7 | 0.00 | 0.00 | 0.00 | 34 | 960.4 |
| 20260507014102 | 51 | 0 | 0.0 | 1.7 | 0.00 | 0.00 | 0.00 | 34 | 960.4 |
| 20260507013602 | 52 | 310 | 0.9 | 2.6 | 0.00 | 0.00 | 0.00 | 34 | 960.3 |
| 20260507013102 | 52 | 309 | 0.9 | 3.5 | 0.00 | 0.00 | 0.00 | 33 | 960.3 |
| 20260507012604 | 52 | 263 | 1.7 | 3.5 | 0.00 | 0.00 | 0.00 | 33 | 960.3 |
| 20260507012102 | 53 | 332 | 1.7 | 4.3 | 0.00 | 0.00 | 0.00 | 33 | 960.3 |
| 20260507011603 | 53 | 311 | 1.7 | 4.3 | 0.00 | 0.00 | 0.00 | 32 | 960.3 |
| 20260507011100 | 53 | 316 | 2.6 | 6.1 | 0.00 | 0.00 | 0.00 | 32 | 960.3 |
| 20260507010600 | 53 | 324 | 3.5 | 9.6 | 0.00 | 0.00 | 0.00 | 31 | 960.3 |
| 20260507010100 | 53 | 309 | 3.5 | 9.6 | 0.00 | 0.00 | 0.00 | 31 | 960.3 |
| 20260507005600 | 53 | 287 | 3.5 | 7.8 | 0.00 | 0.00 | 0.00 | 30 | 960.3 |
| 20260507005100 | 54 | 307 | 3.5 | 8.7 | 0.00 | 0.00 | 0.00 | 30 | 960.3 |
| 20260507004601 | 54 | 311 | 3.5 | 8.7 | 0.00 | 0.00 | 0.00 | 30 | 960.3 |
| 20260507004101 | 54 | 320 | 3.5 | 8.7 | 0.00 | 0.00 | 0.00 | 30 | 960.3 |
| 20260507003600 | 54 | 285 | 3.5 | 8.7 | 0.00 | 0.00 | 0.00 | 30 | 960.3 |
| 20260507003100 | 54 | 251 | 3.5 | 7.0 | 0.00 | 0.00 | 0.00 | 30 | 960.4 |
| 20260507002601 | 54 | 256 | 3.5 | 8.7 | 0.00 | 0.00 | 0.00 | 30 | 960.4 |
| 20260507002101 | 54 | 298 | 4.3 | 10.4 | 0.00 | 0.00 | 0.00 | 29 | 960.4 |
| 20260507001601 | 54 | 4 | 5.2 | 10.4 | 0.00 | 0.00 | 0.00 | 29 | 960.5 |
| 20260507001100 | 54 | 320 | 5.2 | 7.8 | 0.00 | 0.00 | 0.00 | 29 | 960.6 |
| 20260507000601 | 54 | 317 | 4.3 | 9.6 | 0.00 | 0.00 | 0.00 | 29 | 960.5 |
| 20260507000058 | 55 | 304 | 4.3 | 9.6 | 0.00 | 0.00 | 0.00 | 30 | 960.6 |
| 20260506235559 | 55 | 280 | 4.3 | 10.4 | 0.00 | 0.00 | 0.00 | 30 | 960.6 |
| 20260506235058 | 55 | 325 | 5.2 | 10.4 | 0.00 | 0.00 | 0.00 | 30 | 960.7 |
| 20260506234558 | 55 | 317 | 4.3 | 9.6 | 0.00 | 0.00 | 0.00 | 29 | 960.7 |
| 20260506234058 | 55 | 294 | 3.5 | 9.6 | 0.00 | 0.00 | 0.00 | 30 | 960.6 |
| 20260506233558 | 56 | 309 | 3.5 | 7.8 | 0.00 | 0.00 | 0.00 | 29 | 960.6 |
| 20260506233058 | 56 | 279 | 3.5 | 7.8 | 0.00 | 0.00 | 0.00 | 29 | 960.6 |
| 20260506232558 | 56 | 299 | 3.5 | 7.8 | 0.00 | 0.00 | 0.00 | 30 | 960.7 |
| 20260506232059 | 56 | 294 | 3.5 | 7.8 | 0.00 | 0.00 | 0.00 | 29 | 960.7 |
| 20260506231559 | 57 | 211 | 3.5 | 7.8 | 0.00 | 0.00 | 0.00 | 29 | 960.7 |
| 20260506231058 | 57 | 88 | 4.3 | 11.3 | 0.00 | 0.00 | 0.00 | 29 | 960.5 |
| 20260506230558 | 56 | 289 | 4.3 | 11.3 | 0.00 | 0.00 | 0.00 | 29 | 960.6 |
| 20260506230058 | 55 | 286 | 3.5 | 7.8 | 0.00 | 0.00 | 0.00 | 30 | 960.7 |
| 20260506225059 | 55 | 285 | 5.2 | 9.6 | 0.00 | 0.00 | 0.00 | 29 | 960.8 |
| 20260506224556 | 55 | 311 | 4.3 | 9.6 | 0.00 | 0.00 | 0.00 | 29 | 960.9 |
| 20260506224053 | 55 | 251 | 4.3 | 7.8 | 0.00 | 0.00 | 0.00 | 29 | 960.9 |
| 20260506223550 | 55 | 302 | 4.3 | 7.8 | 0.00 | 0.00 | 0.00 | 30 | 961.0 |
| 20260506223050 | 56 | 334 | 4.3 | 10.4 | 0.00 | 0.00 | 0.00 | 29 | 960.9 |
| 20260506222551 | 56 | 204 | 5.2 | 10.4 | 0.00 | 0.00 | 0.00 | 29 | 961.1 |
| 20260506222050 | 57 | 319 | 5.2 | 9.6 | 0.00 | 0.00 | 0.00 | 28 | 960.9 |
| 20260506221551 | 56 | 311 | 6.1 | 9.6 | 0.00 | 0.00 | 0.00 | 30 | 960.8 |
| 20260506221050 | 56 | 328 | 5.2 | 9.6 | 0.00 | 0.00 | 0.00 | 29 | 961.0 |
| 20260506220551 | 56 | 317 | 5.2 | 12.2 | 0.00 | 0.00 | 0.00 | 29 | 961.1 |
| 20260506220050 | 56 | 330 | 5.2 | 12.2 | 0.00 | 0.00 | 0.00 | 29 | 961.2 |
| 20260506215550 | 56 | 110 | 5.2 | 10.4 | 0.00 | 0.00 | 0.00 | 30 | 961.2 |
| 20260506215051 | 57 | 326 | 5.2 | 12.2 | 0.00 | 0.00 | 0.00 | 29 | 961.2 |
| 20260506214551 | 57 | 345 | 5.2 | 12.2 | 0.00 | 0.00 | 0.00 | 29 | 961.0 |
| 20260506214051 | 56 | 322 | 4.3 | 11.3 | 0.00 | 0.00 | 0.00 | 29 | 961.1 |
| 20260506213551 | 57 | 321 | 5.2 | 11.3 | 0.00 | 0.00 | 0.00 | 29 | 961.3 |
| 20260506213051 | 56 | 307 | 5.2 | 9.6 | 0.00 | 0.00 | 0.00 | 30 | 961.1 |
| 20260506212545 | 55 | 313 | 4.3 | 9.6 | 0.00 | 0.00 | 0.00 | 30 | 961.5 |
| 20260506212041 | 55 | 326 | 4.3 | 12.2 | 0.00 | 0.00 | 0.00 | 30 | 961.5 |
| 20260506211541 | 55 | 269 | 5.2 | 12.2 | 0.00 | 0.00 | 0.00 | 30 | 961.5 |
| 20260506211042 | 55 | 315 | 5.2 | 9.6 | 0.00 | 0.00 | 0.00 | 31 | 961.4 |
| 20260506210542 | 55 | 312 | 4.3 | 7.8 | 0.00 | 0.00 | 0.00 | 31 | 961.8 |
| 20260506210042 | 55 | 325 | 6.1 | 11.3 | 0.00 | 0.00 | 0.00 | 32 | 961.9 |
| 20260506205542 | 55 | 314 | 5.2 | 11.3 | 0.00 | 0.00 | 0.00 | 32 | 961.9 |
| 20260506205041 | 55 | 321 | 4.3 | 10.4 | 0.00 | 0.00 | 0.00 | 32 | 961.7 |
| 20260506204542 | 54 | 319 | 4.3 | 8.7 | 0.00 | 0.00 | 0.00 | 32 | 962.0 |
| 20260506204042 | 54 | 307 | 4.3 | 9.6 | 0.00 | 0.00 | 0.00 | 33 | 962.0 |
| 20260506203542 | 54 | 315 | 4.3 | 9.6 | 0.00 | 0.00 | 0.00 | 33 | 962.1 |
| 20260506203042 | 53 | 311 | 4.3 | 10.4 | 0.00 | 0.00 | 0.00 | 34 | 962.2 |
| 20260506202543 | 54 | 312 | 5.2 | 10.4 | 0.00 | 0.00 | 0.00 | 33 | 962.3 |
| 20260506202310 | 54 | 320 | 5.2 | 12.2 | 0.00 | 0.00 | 0.00 | 34 | 962.2 |
| 20260506201541 | 54 | 352 | 5.2 | 12.2 | 0.00 | 0.00 | 0.00 | 34 | 962.2 |
| 20260506201045 | 54 | 299 | 5.2 | 10.4 | 0.00 | 0.00 | 0.00 | 34 | 962.3 |
| 20260506200539 | 55 | 314 | 5.2 | 10.4 | 0.00 | 0.00 | 0.00 | 34 | 962.2 |
| 20260506200040 | 55 | 317 | 5.2 | 9.6 | 0.00 | 0.00 | 0.00 | 34 | 962.2 |
| 20260506195540 | 55 | 282 | 3.5 | 9.6 | 0.00 | 0.00 | 0.00 | 34 | 962.3 |
| 20260506195310 | 54 | 342 | 3.5 | 11.3 | 0.00 | 0.00 | 0.00 | 34 | 962.3 |
| 20260506194540 | 54 | 300 | 4.3 | 11.3 | 0.00 | 0.00 | 0.00 | 34 | 962.4 |
| 20260506194040 | 54 | 248 | 3.5 | 11.3 | 0.00 | 0.00 | 0.00 | 34 | 962.5 |
| 20260506193540 | 54 | 236 | 4.3 | 9.6 | 0.00 | 0.00 | 0.00 | 34 | 962.5 |
| 20260506193041 | 53 | 315 | 5.2 | 11.3 | 0.00 | 0.00 | 0.00 | 34 | 962.5 |
| 20260506192540 | 53 | 245 | 4.3 | 11.3 | 0.00 | 0.00 | 0.00 | 34 | 962.7 |
| 20260506192040 | 54 | 307 | 4.3 | 12.2 | 0.00 | 0.00 | 0.00 | 34 | 962.7 |
| 20260506191540 | 55 | 264 | 5.2 | 12.2 | 0.00 | 0.00 | 0.00 | 33 | 962.8 |
| 20260506190542 | 54 | 290 | 4.3 | 9.6 | 0.00 | 0.00 | 0.00 | 33 | 962.4 |
| 20260506185542 | 52 | 317 | 5.2 | 11.3 | 0.00 | 0.00 | 0.00 | 35 | 962.4 |
| 20260506185038 | 52 | 298 | 5.2 | 12.2 | 0.00 | 0.00 | 0.00 | 35 | 963.0 |
| 20260506184535 | 52 | 324 | 5.2 | 12.2 | 0.00 | 0.00 | 0.00 | 34 | 962.9 |
| 20260506184254 | 52 | 339 | 5.2 | 11.3 | 0.00 | 0.00 | 0.00 | 37 | 963.1 |
| 20260506183535 | 52 | 326 | 6.1 | 13.9 | 0.00 | 0.00 | 0.00 | 36 | 962.9 |
| 20260506183035 | 52 | 321 | 5.2 | 13.9 | 0.00 | 0.00 | 0.00 | 37 | 963.3 |
| 20260506182534 | 53 | 326 | 5.2 | 12.2 | 0.00 | 0.00 | 0.00 | 36 | 963.2 |
| 20260506182035 | 53 | 299 | 4.3 | 10.4 | 0.00 | 0.00 | 0.00 | 37 | 962.7 |
| 20260506181535 | 52 | 299 | 5.2 | 12.2 | 0.00 | 0.00 | 0.00 | 37 | 962.9 |
| 20260506181035 | 52 | 288 | 4.3 | 12.2 | 0.00 | 0.00 | 0.00 | 37 | 963.5 |
| 20260506180535 | 52 | 168 | 4.3 | 10.4 | 0.00 | 0.00 | 0.00 | 36 | 963.6 |
| 20260506180036 | 52 | 316 | 4.3 | 9.6 | 0.00 | 0.00 | 0.00 | 37 | 963.1 |
| 20260506175800 | 52 | 310 | 5.2 | 13.0 | 0.00 | 0.00 | 0.00 | 37 | 963.7 |
| 20260506175036 | 53 | 310 | 5.2 | 13.0 | 0.00 | 0.00 | 0.00 | 36 | 963.2 |
| 20260506174759 | 52 | 335 | 5.2 | 10.4 | 0.00 | 0.00 | 0.00 | 37 | 963.3 |
| 20260506174036 | 52 | 331 | 6.1 | 10.4 | 0.00 | 0.00 | 0.00 | 37 | 963.5 |
| 20260506173536 | 52 | 327 | 6.1 | 9.6 | 0.00 | 0.00 | 0.00 | 37 | 963.5 |
| 20260506173257 | 51 | 275 | 5.2 | 9.6 | 0.00 | 0.00 | 0.00 | 36 | 963.3 |
| 20260506172536 | 50 | 272 | 5.2 | 9.6 | 0.00 | 0.00 | 0.00 | 37 | 963.3 |
| 20260506172033 | 49 | 305 | 5.2 | 11.3 | 0.00 | 0.00 | 0.00 | 38 | 963.9 |
| 20260506171532 | 49 | 329 | 6.1 | 11.3 | 0.00 | 0.00 | 0.00 | 39 | 963.7 |
| 20260506171033 | 50 | 295 | 6.1 | 11.3 | 0.00 | 0.00 | 0.00 | 38 | 963.9 |
| 20260506170527 | 49 | 3 | 5.2 | 10.4 | 0.00 | 0.00 | 0.00 | 39 | 963.7 |
| 20260506170028 | 50 | 293 | 5.2 | 11.3 | 0.00 | 0.00 | 0.00 | 38 | 964.0 |
| 20260506165524 | 50 | 209 | 5.2 | 11.3 | 0.00 | 0.00 | 0.00 | 39 | 963.9 |
| 20260506165025 | 50 | 304 | 5.2 | 10.4 | 0.00 | 0.00 | 0.00 | 38 | 963.9 |
| 20260506164524 | 50 | 301 | 5.2 | 11.3 | 0.00 | 0.00 | 0.00 | 41 | 963.8 |
| 20260506164025 | 50 | 321 | 5.2 | 11.3 | 0.00 | 0.00 | 0.00 | 39 | 964.0 |
| 20260506163525 | 50 | 329 | 5.2 | 11.3 | 0.00 | 0.00 | 0.00 | 39 | 963.7 |
| 20260506163025 | 49 | 301 | 5.2 | 9.6 | 0.00 | 0.00 | 0.00 | 40 | 964.0 |
| 20260506162524 | 49 | 326 | 5.2 | 11.3 | 0.00 | 0.00 | 0.00 | 40 | 963.7 |
| 20260506162025 | 49 | 292 | 5.2 | 11.3 | 0.00 | 0.00 | 0.00 | 39 | 964.3 |
| 20260506161524 | 50 | 292 | 5.2 | 10.4 | 0.00 | 0.00 | 0.00 | 41 | 963.6 |
| 20260506161024 | 49 | 290 | 5.2 | 13.0 | 0.00 | 0.00 | 0.00 | 41 | 963.8 |
| 20260506160522 | 49 | 312 | 4.3 | 14.8 | 0.00 | 0.00 | 0.00 | 41 | 963.7 |
| 20260506160019 | 49 | 288 | 4.3 | 14.8 | 0.00 | 0.00 | 0.00 | 42 | 963.8 |
| 20260506155518 | 48 | 296 | 4.3 | 9.6 | 0.00 | 0.00 | 0.00 | 42 | 963.8 |
| 20260506155248 | 48 | 39 | 5.2 | 9.6 | 0.00 | 0.00 | 0.00 | 44 | 963.9 |
| 20260506154519 | 48 | 273 | 5.2 | 10.4 | 0.00 | 0.00 | 0.00 | 43 | 964.0 |
| 20260506154020 | 48 | 332 | 3.5 | 10.4 | 0.00 | 0.00 | 0.00 | 45 | 963.9 |
| 20260506153518 | 47 | 256 | 4.3 | 9.6 | 0.00 | 0.00 | 0.00 | 45 | 963.9 |
| 20260506153020 | 46 | 327 | 5.2 | 11.3 | 0.00 | 0.00 | 0.00 | 46 | 964.1 |
| 20260506152739 | 46 | 336 | 5.2 | 11.3 | 0.00 | 0.00 | 0.00 | 46 | 964.1 |
| 20260506152020 | 46 | 323 | 5.2 | 10.4 | 0.00 | 0.00 | 0.00 | 46 | 964.0 |
| 20260506151739 | 46 | 320 | 5.2 | 10.4 | 0.00 | 0.00 | 0.00 | 46 | 964.1 |
| 20260506151020 | 46 | 22 | 5.2 | 10.4 | 0.00 | 0.00 | 0.00 | 46 | 964.0 |
| 20260506150519 | 45 | 254 | 5.2 | 9.6 | 0.00 | 0.00 | 0.00 | 46 | 964.0 |
| 20260506150020 | 45 | 334 | 5.2 | 10.4 | 0.00 | 0.00 | 0.00 | 47 | 964.1 |
| 20260506145519 | 44 | 300 | 5.2 | 10.4 | 0.00 | 0.00 | 0.00 | 48 | 964.1 |
| 20260506145017 | 45 | 331 | 4.3 | 9.6 | 0.00 | 0.00 | 0.00 | 48 | 964.1 |
| 20260506144517 | 45 | 306 | 3.5 | 7.8 | 0.00 | 0.00 | 0.00 | 50 | 964.2 |
| 20260506144017 | 44 | 319 | 3.5 | 7.8 | 0.00 | 0.00 | 0.00 | 50 | 964.1 |
| 20260506143745 | 44 | 340 | 3.5 | 6.1 | 0.00 | 0.00 | 0.00 | 50 | 964.1 |
| 20260506143016 | 44 | 308 | 2.6 | 6.1 | 0.00 | 0.00 | 0.00 | 50 | 964.2 |
| 20260506142517 | 44 | 300 | 2.6 | 6.1 | 0.00 | 0.00 | 0.00 | 52 | 964.2 |
| 20260506141517 | 43 | 337 | 2.6 | 5.2 | 0.00 | 0.00 | 0.00 | 52 | 964.1 |
| 20260506141017 | 43 | 321 | 2.6 | 5.2 | 0.00 | 0.00 | 0.00 | 51 | 964.1 |
| 20260506140517 | 43 | 337 | 1.7 | 5.2 | 0.00 | 0.00 | 0.00 | 52 | 964.1 |
| 20260506140017 | 42 | 315 | 1.7 | 4.3 | 0.00 | 0.00 | 0.00 | 53 | 964.1 |
| 20260506135517 | 42 | 284 | 1.7 | 4.3 | 0.00 | 0.00 | 0.00 | 55 | 964.0 |
| 20260506135239 | 42 | 297 | 1.7 | 3.5 | 0.00 | 0.00 | 0.00 | 57 | 964.0 |
| 20260506134741 | 42 | 28 | 0.9 | 3.5 | 0.00 | 0.00 | 0.00 | 60 | 964.1 |
| 20260506134237 | 42 | 0 | 0.9 | 3.5 | 0.00 | 0.00 | 0.00 | 61 | 964.1 |
| 20260506133518 | 42 | 317 | 0.9 | 5.2 | 0.00 | 0.00 | 0.00 | 61 | 964.1 |
| 20260506133018 | 41 | 271 | 0.9 | 6.1 | 0.00 | 0.00 | 0.00 | 63 | 964.0 |
| 20260506132514 | 41 | 315 | 1.7 | 6.1 | 0.00 | 0.00 | 0.00 | 64 | 963.9 |
| 20260506132015 | 40 | 241 | 1.7 | 6.1 | 0.00 | 0.00 | 0.00 | 64 | 963.9 |
| 20260506131512 | 39 | 303 | 1.7 | 5.2 | 0.00 | 0.00 | 0.00 | 66 | 963.8 |
| 20260506131012 | 38 | 300 | 0.9 | 3.5 | 0.00 | 0.00 | 0.00 | 67 | 963.9 |
| 20260506130512 | 38 | 305 | 0.9 | 3.5 | 0.00 | 0.00 | 0.00 | 67 | 963.8 |
| 20260506130231 | 38 | 0 | 0.9 | 2.6 | 0.00 | 0.00 | 0.00 | 67 | 963.8 |
| 20260506125509 | 37 | 103 | 0.9 | 1.7 | 0.00 | 0.00 | 0.00 | 67 | 963.8 |
| 20260506125010 | 36 | 310 | 0.0 | 1.7 | 0.00 | 0.00 | 0.00 | 68 | 963.7 |
| 20260506124734 | 35 | 186 | 0.0 | 0.9 | 0.00 | 0.00 | 0.00 | 68 | 963.7 |
| 20260506124009 | 34 | 0 | 0.0 | 1.7 | 0.00 | 0.00 | 0.00 | 72 | 963.7 |
| 20260506123742 | 33 | 0 | 0.0 | 1.7 | 0.00 | 0.00 | 0.00 | 73 | 963.7 |
| 20260506123009 | 32 | 0 | 0.0 | 1.7 | 0.00 | 0.00 | 0.00 | 75 | 963.7 |
| 20260506122509 | 31 | 0 | 0.0 | 1.7 | 0.00 | 0.00 | 0.00 | 76 | 963.7 |
| 20260506122010 | 31 | 0 | 0.0 | 1.7 | 0.00 | 0.00 | 0.00 | 78 | 963.8 |
| 20260506121510 | 30 | 294 | 0.0 | 1.7 | 0.00 | 0.00 | 0.00 | 80 | 963.8 |
| 20260506121010 | 30 | 0 | 0.0 | 1.7 | 0.00 | 0.00 | 0.00 | 80 | 963.7 |
| 20260506120509 | 30 | 227 | 0.0 | 1.7 | 0.00 | 0.00 | 0.00 | 81 | 963.6 |
| 20260506120009 | 30 | 0 | 0.0 | 0.9 | 0.00 | 0.00 | 0.00 | 81 | 963.7 |
| 20260506115509 | 30 | 198 | 0.0 | 0.9 | 0.00 | 0.00 | 0.00 | 81 | 963.7 |
| 20260506115010 | 29 | 265 | 0.0 | 0.9 | 0.00 | 0.00 | 0.00 | 81 | 963.6 |
| 20260506114510 | 29 | 0 | 0.0 | 0.9 | 0.00 | 0.00 | 0.00 | 81 | 963.5 |
| 20260506114228 | 29 | 0 | 0.0 | 1.7 | 0.00 | 0.00 | 0.00 | 81 | 963.4 |
| 20260506113510 | 29 | 0 | 0.0 | 1.7 | 0.00 | 0.00 | 0.00 | 81 | 963.4 |
| 20260506113231 | 29 | 0 | 0.0 | 1.7 | 0.00 | 0.00 | 0.00 | 81 | 963.4 |
| 20260506112508 | 29 | 286 | 0.0 | 1.7 | 0.00 | 0.00 | 0.00 | 82 | 963.2 |
| 20260506112007 | 28 | 0 | 0.0 | 0.9 | 0.00 | 0.00 | 0.00 | 83 | 963.3 |
| 20260506111506 | 28 | 0 | 0.0 | 0.9 | 0.00 | 0.00 | 0.00 | 82 | 963.2 |
| 20260506111007 | 29 | 0 | 0.0 | 1.7 | 0.00 | 0.00 | 0.00 | 81 | 963.2 |
| 20260506110507 | 29 | 0 | 0.0 | 1.7 | 0.00 | 0.00 | 0.00 | 80 | 963.1 |
| 20260506110007 | 29 | 337 | 0.0 | 1.7 | 0.00 | 0.00 | 0.00 | 80 | 963.2 |
| 20260506105506 | 29 | 0 | 0.9 | 1.7 | 0.00 | 0.00 | 0.00 | 80 | 963.1 |
| 20260506104507 | 28 | 0 | 0.0 | 1.7 | 0.00 | 0.00 | 0.00 | 80 | 963.1 |
| 20260506104008 | 28 | 221 | 0.0 | 1.7 | 0.00 | 0.00 | 0.00 | 81 | 963.1 |
| 20260506103508 | 28 | 0 | 0.0 | 1.7 | 0.00 | 0.00 | 0.00 | 79 | 963.2 |
| 20260506103226 | 29 | 0 | 0.0 | 1.7 | 0.00 | 0.00 | 0.00 | 79 | 963.0 |
| 20260506102506 | 29 | 227 | 0.0 | 0.9 | 0.00 | 0.00 | 0.00 | 79 | 963.0 |
| 20260506102004 | 29 | 0 | 0.0 | 0.9 | 0.00 | 0.00 | 0.00 | 79 | 963.2 |
| 20260506101502 | 29 | 270 | 0.0 | 0.9 | 0.00 | 0.00 | 0.00 | 78 | 963.2 |
| 20260506101001 | 29 | 0 | 0.0 | 0.9 | 0.00 | 0.00 | 0.00 | 78 | 963.1 |
| 20260506100459 | 29 | 200 | 0.0 | 0.9 | 0.00 | 0.00 | 0.00 | 77 | 963.0 |
| 20260506095958 | 29 | 235 | 0.0 | 0.9 | 0.00 | 0.00 | 0.00 | 77 | 963.0 |
| 20260506095459 | 29 | 0 | 0.0 | 0.9 | 0.00 | 0.00 | 0.00 | 76 | 963.0 |
| 20260506094958 | 29 | 0 | 0.0 | 0.9 | 0.00 | 0.00 | 0.00 | 76 | 963.0 |
| 20260506094459 | 29 | 0 | 0.0 | 0.9 | 0.00 | 0.00 | 0.00 | 77 | 962.9 |
| 20260506093956 | 30 | 0 | 0.0 | 0.9 | 0.00 | 0.00 | 0.00 | 76 | 962.9 |
| 20260506093455 | 30 | 0 | 0.0 | 0.9 | 0.00 | 0.00 | 0.00 | 76 | 962.8 |
| 20260506092956 | 30 | 0 | 0.0 | 1.7 | 0.00 | 0.00 | 0.00 | 75 | 962.7 |
| 20260506092455 | 31 | 0 | 0.0 | 1.7 | 0.00 | 0.00 | 0.00 | 75 | 962.8 |
| 20260506091455 | 31 | 0 | 0.0 | 0.9 | 0.00 | 0.00 | 0.00 | 74 | 962.8 |
| 20260506090953 | 31 | 0 | 0.0 | 1.7 | 0.00 | 0.00 | 0.00 | 74 | 962.8 |
| 20260506090453 | 31 | 287 | 0.0 | 1.7 | 0.00 | 0.00 | 0.00 | 73 | 962.6 |
| 20260506085952 | 31 | 0 | 0.0 | 0.9 | 0.00 | 0.00 | 0.00 | 74 | 962.7 |
| 20260506085453 | 31 | 0 | 0.0 | 1.7 | 0.00 | 0.00 | 0.00 | 74 | 962.7 |
| 20260506084953 | 31 | 0 | 0.0 | 1.7 | 0.00 | 0.00 | 0.00 | 73 | 962.6 |
| 20260506084454 | 31 | 0 | 0.0 | 1.7 | 0.00 | 0.00 | 0.00 | 72 | 962.6 |
| 20260506083954 | 32 | 0 | 0.0 | 1.7 | 0.00 | 0.00 | 0.00 | 71 | 962.6 |
| 20260506083454 | 32 | 245 | 0.9 | 1.7 | 0.00 | 0.00 | 0.00 | 71 | 962.6 |
| 20260506082951 | 32 | 286 | 0.9 | 1.7 | 0.00 | 0.00 | 0.00 | 70 | 962.5 |
| 20260506082450 | 32 | 297 | 0.9 | 1.7 | 0.00 | 0.00 | 0.00 | 70 | 962.4 |
| 20260506081951 | 31 | 293 | 0.0 | 1.7 | 0.00 | 0.00 | 0.00 | 72 | 962.5 |
| 20260506081450 | 31 | 0 | 0.0 | 0.9 | 0.00 | 0.00 | 0.00 | 73 | 962.5 |
| 20260506080947 | 32 | 0 | 0.0 | 1.7 | 0.00 | 0.00 | 0.00 | 73 | 962.4 |
| 20260506080447 | 32 | 243 | 0.0 | 1.7 | 0.00 | 0.00 | 0.00 | 73 | 962.3 |
| 20260506072948 | 34 | 214 | 0.0 | 1.7 | 0.00 | 0.00 | 0.00 | 67 | 962.0 |
| 20260506072446 | 35 | 302 | 0.0 | 1.7 | 0.00 | 0.00 | 0.00 | 67 | 961.9 |
| 20260506071945 | 35 | 97 | 0.0 | 1.7 | 0.00 | 0.00 | 0.00 | 67 | 961.9 |
| 20260506070445 | 35 | 297 | 0.9 | 2.6 | 0.00 | 0.00 | 0.00 | 67 | 962.2 |
| 20260506061947 | 34 | 289 | 0.0 | 1.7 | 0.00 | 0.00 | 0.00 | 66 | 962.4 |
| 20260506061446 | 34 | 0 | 0.0 | 1.7 | 0.00 | 0.00 | 0.00 | 66 | 962.5 |
| 20260506060946 | 34 | 305 | 0.0 | 2.6 | 0.00 | 0.00 | 0.00 | 65 | 962.4 |
| 20260506060447 | 34 | 0 | 0.9 | 2.6 | 0.00 | 0.00 | 0.00 | 64 | 962.2 |
| 20260506050938 | 37 | 0 | 1.7 | 5.2 | 0.00 | 0.00 | 0.00 | 59 | 961.7 |
| 20260506050438 | 37 | 311 | 1.7 | 5.2 | 0.00 | 0.00 | 0.00 | 59 | 961.6 |
| 20260506044938 | 38 | 309 | 2.6 | 6.1 | 0.00 | 0.00 | 0.00 | 58 | 961.8 |
| 20260506043936 | 38 | 317 | 2.6 | 6.1 | 0.00 | 0.00 | 0.00 | 58 | 961.8 |
| 20260506043433 | 38 | 297 | 2.6 | 6.1 | 0.00 | 0.00 | 0.00 | 57 | 961.8 |
| 20260506042933 | 39 | 294 | 3.5 | 6.1 | 0.00 | 0.00 | 0.00 | 57 | 961.7 |
| 20260506041929 | 38 | 295 | 2.6 | 6.1 | 0.00 | 0.00 | 0.00 | 56 | 961.7 |
| 20260506041430 | 38 | 316 | 2.6 | 6.1 | 0.00 | 0.00 | 0.00 | 56 | 961.9 |
| 20260506040930 | 38 | 231 | 2.6 | 6.1 | 0.00 | 0.00 | 0.00 | 57 | 962.0 |
| 20260506035928 | 38 | 290 | 2.6 | 5.2 | 0.00 | 0.00 | 0.00 | 56 | 962.1 |
| 20260506035428 | 39 | 312 | 1.7 | 5.2 | 0.00 | 0.00 | 0.00 | 56 | 962.1 |
| 20260506034928 | 39 | 311 | 1.7 | 5.2 | 0.00 | 0.00 | 0.00 | 55 | 962.1 |
| 20260506034428 | 39 | 0 | 1.7 | 4.3 | 0.00 | 0.00 | 0.00 | 55 | 962.1 |
| 20260506033929 | 39 | 330 | 1.7 | 4.3 | 0.00 | 0.00 | 0.00 | 54 | 961.9 |
| 20260506033429 | 40 | 310 | 0.9 | 3.5 | 0.00 | 0.00 | 0.00 | 54 | 961.9 |
| 20260506032428 | 40 | 302 | 0.9 | 3.5 | 0.00 | 0.00 | 0.00 | 54 | 961.8 |
| 20260506031924 | 40 | 291 | 0.9 | 2.6 | 0.00 | 0.00 | 0.00 | 53 | 961.8 |
| 20260506031425 | 41 | 286 | 1.7 | 3.5 | 0.00 | 0.00 | 0.00 | 52 | 961.8 |
| 20260506030924 | 41 | 273 | 1.7 | 3.5 | 0.00 | 0.00 | 0.00 | 50 | 961.7 |
| 20260506030422 | 41 | 292 | 1.7 | 3.5 | 0.00 | 0.00 | 0.00 | 49 | 961.6 |
| 20260506024921 | 42 | 290 | 1.7 | 3.5 | 0.00 | 0.00 | 0.00 | 51 | 961.7 |
| 20260506024422 | 42 | 299 | 1.7 | 3.5 | 0.00 | 0.00 | 0.00 | 51 | 961.6 |
| 20260506023422 | 43 | 297 | 2.6 | 5.2 | 0.00 | 0.00 | 0.00 | 49 | 961.3 |